Regional Weather Roundup
Issued by NWS

Home | Current Version | Previous Version | Graphics & Text | Print | Product List | Glossary On
Versions: 1 2 3 4 5 6 7 8 9 10 11 12 13 14 15 16 17 18 19 20 21 22 23 24 25 26 27 28 29 30 31 32 33 34 35 36 37 38 39 40 41 42 43 44 45 46 47 48 49 50
000
ASUS43 KFSD 271202
RWRSD

WEATHER ROUNDUP FOR SOUTH DAKOTA
NATIONAL WEATHER SERVICE SIOUX FALLS SD
700 AM CDT TUE JUN 27 2017

NOTE: "FAIR" INDICATES FEW OR NO CLOUDS BELOW 12,000 FEET WITH NO
SIGNIFICANT WEATHER AND/OR OBSTRUCTIONS TO VISIBILITY.


SDZ001>005-009-010-012>017-271300-
NORTHWEST AND NORTH CENTRAL SOUTH DAKOTA

CITY           SKY/WX    TMP DP  RH WIND       PRES   REMARKS
BUFFALO          N/A     57  41  55 SE9       29.69S
FAITH            N/A     58  44  60 S22G32    29.79F
MOBRIDGE       PTCLDY    60  43  53 SE18      29.86F
$$

SDZ012>016-024>037-041>051-057-063-072>074-271300-
SOUTHWEST AND SOUTH CENTRAL SOUTH DAKOTA

CITY           SKY/WX    TMP DP  RH WIND       PRES   REMARKS
RAPID CTY ARPT CLEAR     60  50  69 SE15      29.82F
PIERRE         CLOUDY    55  44  66 SE13      29.91F
CUSTER         CLOUDY    56  52  86 VRB6      29.95F
ELLSWORTH AFB  CLEAR     62  51  67 S22       29.78F
PHILIP         CLEAR     61  49  64 SE7       29.87F
PINE RIDGE     CLEAR     62  54  74 S38G49    29.85F
SPEARFISH      FAIR      75  50  41 S21G26    29.75F
WINNER         FAIR      59  51  75 S18G26    29.96F
$$

SDZ004>011-016>023-039-040-271300-
NORTHEAST SOUTH DAKOTA

CITY           SKY/WX    TMP DP  RH WIND       PRES   REMARKS
ABERDEEN       PTSUNNY   49  43  80 S9        29.98F
WATERTOWN      SUNNY     49  43  80 S6        30.04S
BROOKINGS      SUNNY     50  42  74 S8        30.07F
SISSETON         N/A     54  43  66 S7        30.01F
$$

SDZ017-020-022-023-036>040-048>070-271300-
SOUTHEAST SOUTH DAKOTA

CITY           SKY/WX    TMP DP  RH WIND       PRES   REMARKS
SIOUX FALLS    MOSUNNY   56  44  64 S10       30.07F
HURON          MOSUNNY   51  43  74 SE14      30.00F
CHAMBERLAIN    PTCLDY    56  48  72 E12       29.97F
MITCHELL       CLOUDY    52  44  74 SE10      30.04S
YANKTON        SUNNY     51  45  79 E6        30.06F
$$

ABBREVIATIONS USED IN REMARKS
   TC - TEMPERATURE IN CELSIUS
  WCI - WIND CHILL INDEX
   HX - HEAT INDEX
  VSB - VISIBILITY





USA.gov is the U.S. government's official web portal to all federal, state and local government web resources and services.